{"data":{"norad_id":67103,"epoch":"2026-09-20T00:04:15.984192Z","epoch_age_seconds":121613,"freshness":"FRESH","line1":"1 67103U 25299B   26263.00296278  .00012940  00000+0  47867-3 0  9997","line2":"2 67103  43.0012 151.6444 0000754 275.3518  84.7247 15.27596891 42833","mean_motion":15.27596891,"eccentricity":7.54e-5,"inclination_deg":43.0012,"raan_deg":151.6444,"arg_perigee_deg":275.3518,"mean_anomaly_deg":84.7247,"bstar":0.00047867,"rev_number":4283,"period_min":94.265706383923,"perigee_km":482.48118915707,"apogee_km":483.51584839331,"semimajor_km":6861.1355187752,"source":"CELESTRAK","updated_at":"2026-09-21T09:00:36.103567Z"}}